Regional Weather Roundup
Issued by NWS Newport/Morehead, NC

Current Version | Previous Version | Graphics & Text | Print | Product List | Glossary On
Versions: 1 2 3 4 5 6 7 8 9 10 11 12 13 14 15 16 17 18 19 20 21 22 23 24 25 26 27 28 29 30 31 32 33 34 35 36 37 38 39 40 41 42 43 44 45 46 47 48 49 50
000 ASUS42 KMHX 251614 RWRMHX WEATHER ROUNDUP FOR EASTERN NORTH CAROLINA NATIONAL WEATHER SERVICE NEWPORT/MOREHEAD CITY NC 1200 PM EDT FRI MAY 25 2018 NOTE: "FAIR" INDICATES FEW OR NO CLOUDS BELOW 12,000 FEET WITH NO SIGNIFICANT WEATHER AND/OR OBSTRUCTIONS TO VISIBILITY NCZ015>017-031-032-045>047-102-103-251700- NORTH COAST CITY SKY/WX TMP DP RH WIND PRES REMARKS EDENTON FAIR 82 65 58 S7 30.12F ELIZABETH CITY FAIR 80 65 59 SE8 30.12F KITTY HAWK FAIR 79 61 53 S3 30.12F MANTEO FAIR 78 62 58 S12 30.13F $$ NCZ045>047-081-094-103-104-251700- CENTRAL COAST CITY SKY/WX TMP DP RH WIND PRES REMARKS FRISCO FAIR 82 67 60 SE9 30.14F $$ NCZ095-097-098-100-101-251700- SOUTHERN COAST CITY SKY/WX TMP DP RH WIND PRES REMARKS BEAUFORT FAIR 79 69 71 S9 30.12F CEDAR ISLAND NOT AVBL JACKSONVILLE FAIR 81 70 69 SE9 30.11F PINEY ISLAND NOT AVBL WILMINGTON PTSUNNY 80 69 69 SE8 30.11F $$ NCZ011>013-027>030-043-044-078>080-089-090>093-098-251700- COASTAL PLAIN CITY SKY/WX TMP DP RH WIND PRES REMARKS AHOSKIE FAIR 79 64 60 S8 30.11F CLINTON FAIR 82 70 65 CALM 30.11F ELIZABETHTOWN CLOUDY 81 70 69 SE6 30.11F GOLDSBORO FAIR 81 65 58 SE6 30.10F GREENVILLE FAIR 81 63 54 CALM 30.13F HAVELOCK MOSUNNY 84 69 60 SE9 30.12 KENANSVILLE FAIR 81 68 65 E6 30.11F KINSTON MOSUNNY 82 63 51 SE5 30.12F NEW BERN FAIR 81 68 64 SE8 30.12F RICHLANDS PTSUNNY 81 68 64 S9 30.11F ROCKY MOUNT FAIR 80 63 55 S9 30.11F WASHINGTON FAIR 82 65 55 CALM 30.12F WHITEVILLE FAIR 82 69 64 SE5 30.10F $$ AMZ130-135-150-152-154-156-158-170-250-252-270-ANZ085-086-088-633-658-670-251700- MARINE OBSERVATIONS STATION/POSITION TIME TEMP WIND PRES WAVE SWELL AIR SEA DIR/SP/G HT/PER HT/PER (UTC) (F) (DEG/KT/KT) (MB) (FT/S) (FT/S) CHESAPEAKE LIGHT NOT AVBL 64 E VA BEACH 1550 70 69 190/ 4/ 6 1020.8 2/ 8 2/ 8 DUCK 1542 74 72 130/ 9/ 11 1019.8 2 E DUCK 1600 73 N/A 1/ 8 OREGON INLET 1542 76 75 110/ 5/ 10 1020.3 13E OREGON INLT 1548 72 N/A 2/ 8 2/ 8 HATTERAS CG 1542 77 75 140/ 7/ 9 1020.2 DIAMOND BUOY 1600 77 78 150/ 12/ 14 1020.8 CAPE LOOKOUT 1600 120/ 4/ 5 1020.4 BEAUFORT LAB 1542 78 78 160/ 7/ 10 1020.4 30 SE NEW RVR IN 1508 140/ 4/ 8 N/A 30 SE NEW RVR IN 1600 77 N/A 2/ 9 27 SE WRIGHTSVLE 1508 76 76 170/ 8/ 16 1020.1 5 SE WRIGHTSVLE 1508 76 74 160/ 2/ 4 1019.5 225 S CAPE HAT 1600 79 150/ 6/ 8 1019.9 41 SE CHARLESTON 1550 77 90/ 6/ 8 1019.3 2/ 8 2/ 8 $$

USA.gov is the U.S. government's official web portal to all federal, state and local government web resources and services.